NORTHEAST SUFFOLK  -  Rip Current Statement Rip Current Statement        NORTHERN NASSAU  -  Rip Current Statement Rip Current Statement        NORTHERN QUEENS  -  Rip Current Statement Rip Current Statement        NORTHWEST SUFFOLK  -  Rip Current Statement Rip Current Statement        SOUTHEAST SUFFOLK  -  Rip Current Statement Rip Current Statement        SOUTHERN NASSAU  -  Rip Current Statement Rip Current Statement        SOUTHERN QUEENS  -  Rip Current Statement Rip Current Statement        SOUTHWEST SUFFOLK  -  Rip Current Statement Rip Current Statement      

Active alerts

Northern Queens
  Details for Northern Queens Rip Current Statement
Southern Queens
  Details for Southern Queens Rip Current Statement
Northern Nassau
  Details for Northern Nassau Rip Current Statement
Southern Nassau
  Details for Southern Nassau Rip Current Statement
Northwest Suffolk
  Details for Northwest Suffolk Rip Current Statement
Southwest Suffolk
  Details for Southwest Suffolk Rip Current Statement
Northeast Suffolk
  Details for Northeast Suffolk Rip Current Statement
Southeast Suffolk
  Details for Southeast Suffolk Rip Current Statement


WXM80 ListenWXM80 Stop

You find our weather info also at:

UK Metoffice

WeatherCloud

Weather Underground

Northeastern Weather Network

AWEKAS

Citizen Weather Observer Program (CWOP)

HAMweather, WeatherForYou, PWS Weather


Weather Underground History page Text

Daily Summary for August 11, 2017 Units:  Metric    English   Both
« Previous Day
Next Day »
Daily Weekly Monthly Yearly Custom
  High: Low: Average:
Temperature: 29.7 °C 17.4 °C 22.7 °C
Dew Point: 21.2 °C 13.8 °C 17.1 °C
Humidity: 97 % 50 % 73 %
Wind Speed: 9.7 km/h 0 km/h 1.1 km/h
Wind Gust: 22.2 km/h - -
Wind:- - SSE
Pressure: 1020.5 hPa 1014.4 hPa -
Precipitation: 0 mm    
Historical Graphs
 
 
Tabular Data for August 11, 2017
Time Temperature Dew Point Pressure Wind Wind Speed Wind Gust Humidity Rainfall Rate (Hourly)
00:01 18.8 °C 16.4 °C 1020.2 hPa Calm     86 % 0 mm
00:06 18.7 °C 16.4 °C 1020.2 hPa Calm     87 % 0 mm
00:11 18.6 °C 16.4 °C 1020.2 hPa Calm     87 % 0 mm
00:17 18.6 °C 16.6 °C 1020.5 hPa Calm     88 % 0 mm
00:22 18.5 °C 16.5 °C 1020.2 hPa Calm     88 % 0 mm
00:27 18.4 °C 16.2 °C 1020.5 hPa Calm     87 % 0 mm
00:32 18.3 °C 16.3 °C 1020.5 hPa Calm     88 % 0 mm
00:37 18.3 °C 16.3 °C 1020.5 hPa Calm     88 % 0 mm
00:42 18.2 °C 16.2 °C 1020.5 hPa Calm     88 % 0 mm
00:47 18.2 °C 16.2 °C 1020.5 hPa Calm     88 % 0 mm
00:52 18.1 °C 16.3 °C 1020.2 hPa Calm     89 % 0 mm
00:57 18.1 °C 16.2 °C 1020.2 hPa Calm     89 % 0 mm
01:02 18 °C 16.2 °C 1020.2 hPa Calm     89 % 0 mm
01:07 17.9 °C 16.1 °C 1020.2 hPa Calm     89 % 0 mm
01:12 17.9 °C 16.1 °C 1020.2 hPa Calm     89 % 0 mm
01:17 17.8 °C 16 °C 1020.2 hPa Calm     89 % 0 mm
01:22 17.8 °C 15.9 °C 1020.2 hPa Calm     89 % 0 mm
01:27 17.7 °C 15.9 °C 1020.2 hPa Calm     89 % 0 mm
01:32 17.7 °C 15.8 °C 1020.2 hPa Calm     89 % 0 mm
01:37 17.6 °C 15.8 °C 1020.2 hPa Calm     89 % 0 mm
01:42 17.6 °C 15.7 °C 1020.2 hPa Calm     89 % 0 mm
01:47 17.5 °C 15.7 °C 1020.2 hPa Calm     89 % 0 mm
01:53 17.5 °C 15.8 °C 1020.2 hPa Calm     90 % 0 mm
01:58 17.5 °C 16 °C 1020.2 hPa Calm     91 % 0 mm
02:03 17.4 °C 15.9 °C 1020.2 hPa Calm     91 % 0 mm
02:08 17.4 °C 15.9 °C 1020.2 hPa Calm     91 % 0 mm
02:13 17.4 °C 15.9 °C 1019.9 hPa Calm     91 % 0 mm
02:18 17.4 °C 15.9 °C 1019.9 hPa Calm     91 % 0 mm
02:23 17.4 °C 15.9 °C 1019.9 hPa Calm     91 % 0 mm
02:28 17.4 °C 16.1 °C 1019.9 hPa Calm     92 % 0 mm
02:33 17.4 °C 16.1 °C 1019.9 hPa Calm     92 % 0 mm
02:38 17.4 °C 16.1 °C 1019.9 hPa Calm     92 % 0 mm
02:43 17.4 °C 16.1 °C 1019.9 hPa Calm     92 % 0 mm
02:48 17.4 °C 16.3 °C 1019.9 hPa Calm     93 % 0 mm
02:53 17.5 °C 16.3 °C 1019.9 hPa Calm     93 % 0 mm
02:59 17.6 °C 16.4 °C 1019.9 hPa Calm     93 % 0 mm
03:04 17.6 °C 16.4 °C 1019.9 hPa Calm     93 % 0 mm
03:09 17.6 °C 16.4 °C 1019.9 hPa Calm     93 % 0 mm
03:14 17.6 °C 16.6 °C 1019.9 hPa Calm     94 % 0 mm
03:19 17.6 °C 16.6 °C 1019.9 hPa Calm     94 % 0 mm
03:24 17.6 °C 16.6 °C 1019.9 hPa Calm     94 % 0 mm
03:29 17.7 °C 16.7 °C 1019.9 hPa Calm     94 % 0 mm
03:34 17.7 °C 16.7 °C 1019.9 hPa Calm     94 % 0 mm
03:39 17.7 °C 16.7 °C 1019.9 hPa Calm     94 % 0 mm
03:44 17.7 °C 16.7 °C 1019.9 hPa Calm     94 % 0 mm
03:49 17.7 °C 16.7 °C 1019.9 hPa Calm     94 % 0 mm
03:54 17.8 °C 16.8 °C 1019.9 hPa Calm     94 % 0 mm
03:59 17.8 °C 16.8 °C 1019.9 hPa Calm     94 % 0 mm
04:04 17.8 °C 16.8 °C 1019.9 hPa Calm     94 % 0 mm
04:09 17.8 °C 16.8 °C 1019.9 hPa Calm     94 % 0 mm
04:14 17.8 °C 16.8 °C 1019.5 hPa Calm     94 % 0 mm
04:19 17.9 °C 16.9 °C 1019.5 hPa Calm     94 % 0 mm
04:24 17.9 °C 16.9 °C 1019.5 hPa Calm     94 % 0 mm
04:29 17.9 °C 16.9 °C 1019.5 hPa Calm     94 % 0 mm
04:34 17.9 °C 16.9 °C 1019.5 hPa Calm     94 % 0 mm
04:40 17.9 °C 16.9 °C 1019.5 hPa Calm     94 % 0 mm
04:45 18 °C 17 °C 1019.5 hPa Calm     94 % 0 mm
04:50 18 °C 17 °C 1019.9 hPa Calm     94 % 0 mm
04:55 18 °C 17 °C 1019.9 hPa Calm     94 % 0 mm
05:00 18 °C 17 °C 1019.5 hPa Calm     94 % 0 mm
05:05 18 °C 17 °C 1019.5 hPa Calm     94 % 0 mm
05:10 18 °C 17 °C 1019.5 hPa Calm     94 % 0 mm
05:15 18 °C 17 °C 1019.5 hPa Calm     94 % 0 mm
05:20 18 °C 17 °C 1019.5 hPa Calm     94 % 0 mm
05:25 17.9 °C 16.9 °C 1019.5 hPa Calm     94 % 0 mm
05:30 17.9 °C 16.9 °C 1019.5 hPa Calm     94 % 0 mm
05:35 17.9 °C 16.9 °C 1019.5 hPa Calm     94 % 0 mm
05:40 17.8 °C 16.7 °C 1019.5 hPa Calm     93 % 0 mm
05:45 17.8 °C 16.6 °C 1019.5 hPa Calm     93 % 0 mm
05:50 17.8 °C 16.6 °C 1019.5 hPa Calm     93 % 0 mm
05:55 17.7 °C 16.5 °C 1019.5 hPa Calm     93 % 0 mm
06:00 17.7 °C 16.5 °C 1019.5 hPa Calm     93 % 0 mm
06:05 17.6 °C 16.4 °C 1019.5 hPa Calm     93 % 0 mm
06:10 17.6 °C 16.4 °C 1019.5 hPa Calm     93 % 0 mm
06:15 17.5 °C 16.3 °C 1019.5 hPa Calm     93 % 0 mm
06:20 17.4 °C 16.3 °C 1019.5 hPa Calm     93 % 0 mm
06:26 17.4 °C 16.3 °C 1019.5 hPa Calm     93 % 0 mm
06:31 17.4 °C 16.3 °C 1019.5 hPa Calm     93 % 0 mm
06:36 17.4 °C 16.2 °C 1019.5 hPa Calm     93 % 0 mm
06:41 17.4 °C 16.4 °C 1019.5 hPa Calm     94 % 0 mm
06:46 17.4 °C 16.4 °C 1019.5 hPa Calm     94 % 0 mm
06:51 17.5 °C 16.5 °C 1019.5 hPa Calm     94 % 0 mm
06:56 17.6 °C 16.6 °C 1019.5 hPa Calm     94 % 0 mm
07:01 17.6 °C 16.8 °C 1019.5 hPa Calm     95 % 0 mm
07:06 17.7 °C 16.8 °C 1019.5 hPa Calm     95 % 0 mm
07:11 17.7 °C 16.9 °C 1019.5 hPa Calm     95 % 0 mm
07:16 17.9 °C 17.3 °C 1019.9 hPa Calm     96 % 0 mm
07:21 18.2 °C 17.5 °C 1019.5 hPa Calm     96 % 0 mm
07:26 18.4 °C 17.9 °C 1019.5 hPa Calm     97 % 0 mm
07:31 18.7 °C 18.1 °C 1019.5 hPa Calm     96 % 0 mm
07:36 18.8 °C 18.3 °C 1019.9 hPa Calm     97 % 0 mm
07:41 18.9 °C 18.3 °C 1019.9 hPa Calm     96 % 0 mm
07:46 19.1 °C 18.4 °C 1019.9 hPa Calm     96 % 0 mm
07:51 19.2 °C 18.3 °C 1019.9 hPa SSW 0.8 km/h 1.9 km/h 95 % 0 mm
07:56 19.3 °C 18.3 °C 1019.9 hPa Calm   1.9 km/h 94 % 0 mm
08:01 19.4 °C 18.1 °C 1019.9 hPa SSW 0.2 km/h 1.9 km/h 92 % 0 mm
08:06 19.6 °C 18.1 °C 1019.9 hPa SSW 0.5 km/h 3.7 km/h 91 % 0 mm
08:11 19.8 °C 17.9 °C 1019.9 hPa SSW 0.2 km/h 1.6 km/h 89 % 0 mm
08:16 19.9 °C 17.9 °C 1019.9 hPa Calm   1.9 km/h 88 % 0 mm
08:21 20.2 °C 17.7 °C 1019.5 hPa Calm     86 % 0 mm
08:26 20.3 °C 17.7 °C 1019.5 hPa WSW 1.6 km/h 5.6 km/h 85 % 0 mm
08:31 20.5 °C 17.3 °C 1019.9 hPa WSW 0.6 km/h 3.7 km/h 82 % 0 mm
08:37 20.6 °C 17.2 °C 1019.9 hPa SW 2.3 km/h 3.2 km/h 81 % 0 mm
08:42 20.8 °C 17.2 °C 1019.9 hPa WSW 1.8 km/h 5.6 km/h 80 % 0 mm
08:47 20.9 °C 17.1 °C 1019.9 hPa WSW 4.2 km/h 5.6 km/h 79 % 0 mm
08:52 21 °C 16.8 °C 1019.9 hPa WSW 2.7 km/h 5.6 km/h 77 % 0 mm
08:57 21.2 °C 16.6 °C 1019.5 hPa SW 0.5 km/h 1.9 km/h 75 % 0 mm
09:02 21.4 °C 15.4 °C 1019.5 hPa Calm   3.7 km/h 69 % 0 mm
09:07 21.7 °C 16.2 °C 1019.5 hPa SE 1 km/h 5.6 km/h 71 % 0 mm
09:12 21.9 °C 15.7 °C 1019.5 hPa Calm   1.9 km/h 68 % 0 mm
09:17 22.1 °C 15.9 °C 1019.5 hPa SW 2.7 km/h 4.8 km/h 68 % 0 mm
09:22 22.3 °C 15.9 °C 1019.2 hPa SW 0.5 km/h 1.9 km/h 67 % 0 mm
09:27 22.6 °C 16.2 °C 1019.2 hPa Calm   1.9 km/h 67 % 0 mm
09:32 22.9 °C 15.9 °C 1019.2 hPa SW 1.4 km/h 3.7 km/h 65 % 0 mm
09:37 23.1 °C 16.8 °C 1019.2 hPa Calm   3.7 km/h 68 % 0 mm
09:42 23.3 °C 16.3 °C 1019.2 hPa SE 1.8 km/h 4.8 km/h 65 % 0 mm
09:47 23.7 °C 17.2 °C 1019.2 hPa SE 1.8 km/h 1.9 km/h 67 % 0 mm
09:52 23.9 °C 17.4 °C 1019.2 hPa Calm     67 % 0 mm
09:57 24.1 °C 17.3 °C 1019.2 hPa SE 0.6 km/h 1.9 km/h 66 % 0 mm
10:02 24.4 °C 17.4 °C 1019.2 hPa SW 3.5 km/h 5.6 km/h 65 % 0 mm
10:08 24.8 °C 17.3 °C 1019.2 hPa SW 0.5 km/h 3.7 km/h 63 % 0 mm
10:13 25.2 °C 17.4 °C 1019.2 hPa SSW 0.3 km/h 3.7 km/h 62 % 0 mm
10:18 25.8 °C 18.8 °C 1019.2 hPa Calm   5.6 km/h 65 % 0 mm
10:23 26.2 °C 18.6 °C 1019.2 hPa Calm     63 % 0 mm
10:28 26.7 °C 19.1 °C 1019.2 hPa SE 4 km/h 8 km/h 63 % 0 mm
10:33 26.9 °C 18.4 °C 1019.2 hPa SSE 0.2 km/h 1.9 km/h 60 % 0 mm
10:43 27.4 °C 19.2 °C 1019.2 hPa SSE 0.3 km/h 4.8 km/h 61 % 0 mm
10:48 27.7 °C 19 °C 1019.2 hPa Calm     59 % 0 mm
10:53 27.9 °C 18.9 °C 1019.2 hPa Calm     58 % 0 mm
10:58 28.3 °C 19.2 °C 1019.2 hPa ENE 0.8 km/h 3.2 km/h 58 % 0 mm
11:03 28.3 °C 18.7 °C 1019.2 hPa ENE 1 km/h 5.6 km/h 56 % 0 mm
11:08 28.4 °C 19.1 °C 1019.2 hPa North 1 km/h 5.6 km/h 57 % 0 mm
11:13 28.4 °C 19.4 °C 1019.2 hPa NE 2.3 km/h 5.6 km/h 58 % 0 mm
11:18 28.4 °C 19.1 °C 1019.2 hPa NNE 3.2 km/h 5.6 km/h 57 % 0 mm
11:23 28.6 °C 18.6 °C 1019.2 hPa NNE 1 km/h 3.7 km/h 55 % 0 mm
11:28 28.7 °C 18.8 °C 1018.8 hPa NNE 2.7 km/h 7.4 km/h 55 % 0 mm
11:33 28.9 °C 19.3 °C 1019.2 hPa NE 4.3 km/h 8 km/h 56 % 0 mm
11:38 29.1 °C 19.7 °C 1018.8 hPa North 4.3 km/h 9.7 km/h 57 % 0 mm
11:43 29.1 °C 18.8 °C 1019.2 hPa ENE 1 km/h 5.6 km/h 54 % 0 mm
11:48 29.2 °C 18.6 °C 1018.8 hPa NNE 4 km/h 5.6 km/h 53 % 0 mm
11:53 29.3 °C 19 °C 1018.8 hPa NE 3.2 km/h 5.6 km/h 54 % 0 mm
11:58 29.4 °C 18.8 °C 1018.8 hPa North 5 km/h 9.3 km/h 53 % 0 mm
12:03 29.5 °C 18.9 °C 1018.8 hPa North 4.2 km/h 9.3 km/h 53 % 0 mm
12:08 29.7 °C 19.7 °C 1018.8 hPa North 3.7 km/h 8 km/h 55 % 0 mm
12:13 29.6 °C 18.7 °C 1018.8 hPa NNE 1.6 km/h 4.8 km/h 52 % 0 mm
12:18 29.4 °C 18.5 °C 1018.8 hPa North 3.2 km/h 9.3 km/h 52 % 0 mm
12:24 29.2 °C 18.9 °C 1018.5 hPa North 5.8 km/h 7.4 km/h 54 % 0 mm
12:29 29 °C 19.1 °C 1018.5 hPa NE 1.1 km/h 9.3 km/h 55 % 0 mm
12:34 28.9 °C 19.8 °C 1018.5 hPa NE 3.1 km/h 7.4 km/h 58 % 0 mm
12:39 28.9 °C 19 °C 1018.5 hPa ENE 2.6 km/h 5.6 km/h 55 % 0 mm
12:44 28.9 °C 19 °C 1018.5 hPa ENE 2.6 km/h 7.4 km/h 55 % 0 mm
12:49 29 °C 19.9 °C 1018.5 hPa ENE 2.6 km/h 5.6 km/h 58 % 0 mm
12:54 29 °C 18.8 °C 1018.5 hPa East 1.8 km/h 5.6 km/h 54 % 0 mm
12:59 28.9 °C 19.8 °C 1018.5 hPa NE 1.6 km/h 5.6 km/h 58 % 0 mm
13:04 28.9 °C 20.1 °C 1018.5 hPa ENE 4.8 km/h 11.1 km/h 59 % 0 mm
13:09 28.9 °C 21.2 °C 1018.5 hPa NNE 1 km/h 5.6 km/h 63 % 0 mm
13:14 28.9 °C 20.1 °C 1018.2 hPa ENE 2.9 km/h 5.6 km/h 59 % 0 mm
13:19 28.8 °C 20.2 °C 1018.2 hPa ENE 1.8 km/h 5.6 km/h 60 % 0 mm
13:24 28.7 °C 20.2 °C 1017.8 hPa ENE 5.6 km/h 6.4 km/h 60 % 0 mm
13:30 28.6 °C 20.3 °C 1018.2 hPa ENE 6.1 km/h 8 km/h 61 % 0 mm
13:35 28.5 °C 20.8 °C 1018.2 hPa ENE 2.7 km/h 7.4 km/h 63 % 0 mm
13:40 28.5 °C 20.8 °C 1017.8 hPa NE 3.7 km/h 5.6 km/h 63 % 0 mm
13:45 28.6 °C 20.6 °C 1017.8 hPa NNE 8.5 km/h 13 km/h 62 % 0 mm
13:50 28.6 °C 20.3 °C 1018.2 hPa NNW 2.6 km/h 5.6 km/h 61 % 0 mm
13:55 28.6 °C 20.1 °C 1017.8 hPa SW 6.1 km/h 11.1 km/h 60 % 0 mm
14:00 28.4 °C 19.1 °C 1018.2 hPa SW 1.9 km/h 5.6 km/h 57 % 0 mm
14:05 28.2 °C 18.8 °C 1018.2 hPa SSW 2.3 km/h 4.8 km/h 57 % 0 mm
14:10 28.2 °C 19.4 °C 1018.2 hPa SSW 3.9 km/h 6.4 km/h 59 % 0 mm
14:15 28.2 °C 18.9 °C 1018.2 hPa SW 5.1 km/h 9.3 km/h 57 % 0 mm
14:20 28.2 °C 18.6 °C 1018.2 hPa South 2.3 km/h 4.8 km/h 56 % 0 mm
14:25 27.9 °C 17.8 °C 1018.2 hPa SE 0.2 km/h 5.6 km/h 54 % 0 mm
14:30 27.8 °C 17.9 °C 1017.8 hPa SSW 0.6 km/h 5.6 km/h 55 % 0 mm
14:35 27.6 °C 18.1 °C 1018.2 hPa South 2.6 km/h 5.6 km/h 56 % 0 mm
14:40 27.6 °C 18.6 °C 1018.2 hPa SSE 1.6 km/h 5.6 km/h 58 % 0 mm
14:45 27.5 °C 17.9 °C 1017.8 hPa SW 1.3 km/h 5.6 km/h 56 % 0 mm
14:50 27.6 °C 17.7 °C 1017.8 hPa SE 9.7 km/h 22.2 km/h 55 % 0 mm
14:55 27.4 °C 18.2 °C 1017.8 hPa SE 2.1 km/h 5.6 km/h 57 % 0 mm
15:00 27.4 °C 17.8 °C 1017.8 hPa SSE 1.4 km/h 5.6 km/h 56 % 0 mm
15:05 27.4 °C 18.4 °C 1017.5 hPa South 1 km/h 5.6 km/h 58 % 0 mm
15:06 27.4 °C 18.1 °C 1017.5 hPa South 1.6 km/h 6.4 km/h 57 % 0 mm
15:11 27.4 °C 18.7 °C 1017.5 hPa SSE 0.8 km/h 3.2 km/h 59 % 0 mm
15:16 27.6 °C 19.1 °C 1017.5 hPa South 1.6 km/h 9.7 km/h 60 % 0 mm
15:21 27.4 °C 18.4 °C 1017.5 hPa SSE 4.8 km/h 16.1 km/h 58 % 0 mm
15:26 27.4 °C 18.7 °C 1017.5 hPa South 3.2 km/h 9.7 km/h 59 % 0 mm
15:31 27.3 °C 18.3 °C 1017.2 hPa SSE 0.6 km/h 5.6 km/h 58 % 0 mm
15:36 26.9 °C 18 °C 1017.2 hPa SE 0.3 km/h 7.4 km/h 58 % 0 mm
15:41 26.8 °C 18.4 °C 1017.2 hPa SSE 1.6 km/h 9.7 km/h 60 % 0 mm
15:46 26.8 °C 18.7 °C 1017.2 hPa Calm   9.7 km/h 61 % 0 mm
15:51 26.9 °C 18.7 °C 1017.2 hPa SSW 1.6 km/h 4.8 km/h 61 % 0 mm
15:56 26.9 °C 17.4 °C 1017.2 hPa SSW 1.6 km/h 6.4 km/h 56 % 0 mm
16:01 26.9 °C 18.5 °C 1016.8 hPa South 1 km/h 5.6 km/h 60 % 0 mm
16:06 26.9 °C 18 °C 1016.8 hPa SE 1.1 km/h 5.6 km/h 58 % 0 mm
16:11 26.9 °C 17.9 °C 1016.8 hPa WSW 0.3 km/h 1.9 km/h 58 % 0 mm
16:16 26.9 °C 18 °C 1016.8 hPa SSE 1.1 km/h 4.8 km/h 58 % 0 mm
16:21 27 °C 17.2 °C 1016.8 hPa SE 3.1 km/h 8 km/h 55 % 0 mm
16:26 26.8 °C 17.3 °C 1016.8 hPa SE 8.7 km/h 13 km/h 56 % 0 mm
16:31 26.8 °C 17.3 °C 1016.8 hPa South 2.4 km/h 9.3 km/h 56 % 0 mm
16:36 26.7 °C 17.5 °C 1016.8 hPa SE 1.9 km/h 5.6 km/h 57 % 0 mm
16:41 26.7 °C 17.2 °C 1016.8 hPa SW 3.4 km/h 6.4 km/h 56 % 0 mm
16:46 26.8 °C 17.3 °C 1016.8 hPa SSE 1.8 km/h 5.6 km/h 56 % 0 mm
16:51 26.8 °C 16.7 °C 1016.8 hPa SW 2.1 km/h 13 km/h 54 % 0 mm
16:56 26.8 °C 17 °C 1016.8 hPa South 1.3 km/h 3.7 km/h 55 % 0 mm
17:01 26.8 °C 16.4 °C 1016.8 hPa SE 1.9 km/h 3.7 km/h 53 % 0 mm
17:06 26.6 °C 15.9 °C 1016.8 hPa SE 4.2 km/h 18.5 km/h 52 % 0 mm
17:11 26.2 °C 16.1 °C 1016.8 hPa SE 7.2 km/h 16.7 km/h 54 % 0 mm
17:17 25.8 °C 16.1 °C 1016.8 hPa SSE 3.2 km/h 11.1 km/h 55 % 0 mm
17:21 25.6 °C 16.4 °C 1016.8 hPa SE 4.5 km/h 6.4 km/h 57 % 0 mm
17:27 25.5 °C 15.8 °C 1016.8 hPa SE 0.6 km/h 1.9 km/h 55 % 0 mm
17:32 25.4 °C 15.7 °C 1016.8 hPa SSE 2.4 km/h 8 km/h 55 % 0 mm
17:37 25.3 °C 15.3 °C 1016.5 hPa SSE 5.6 km/h 13 km/h 54 % 0 mm
17:42 25.2 °C 15.2 °C 1016.8 hPa SSE 0.5 km/h 7.4 km/h 54 % 0 mm
17:47 25.1 °C 15.2 °C 1016.5 hPa SSE 1.8 km/h 3.7 km/h 54 % 0 mm
17:52 25.1 °C 15.2 °C 1016.5 hPa SSE 1.1 km/h 3.7 km/h 54 % 0 mm
17:57 25.2 °C 14.9 °C 1016.5 hPa SSW 0.8 km/h 1.9 km/h 53 % 0 mm
18:02 25.2 °C 14.9 °C 1016.5 hPa South 2.3 km/h 5.6 km/h 53 % 0 mm
18:07 25.2 °C 14.7 °C 1016.5 hPa SE 3.5 km/h 7.4 km/h 52 % 0 mm
18:12 25.2 °C 14.4 °C 1016.5 hPa SSW 2.4 km/h 6.4 km/h 51 % 0 mm
18:17 25.2 °C 14.3 °C 1016.1 hPa SSW 2.1 km/h 5.6 km/h 51 % 0 mm
18:22 25.1 °C 14.3 °C 1016.1 hPa South 0.2 km/h 3.7 km/h 51 % 0 mm
18:27 25 °C 13.8 °C 1016.1 hPa ESE 1.8 km/h 7.4 km/h 50 % 0 mm
18:32 24.8 °C 14 °C 1016.1 hPa SSE 1.4 km/h 13 km/h 51 % 0 mm
18:37 24.7 °C 13.8 °C 1016.1 hPa SE 2.3 km/h 5.6 km/h 51 % 0 mm
18:42 24.6 °C 14.3 °C 1016.1 hPa SE 1.9 km/h 5.6 km/h 53 % 0 mm
18:47 24.5 °C 14.9 °C 1016.1 hPa SE 0.3 km/h 1.9 km/h 55 % 0 mm
18:52 24.4 °C 14.8 °C 1016.1 hPa Calm     55 % 0 mm
18:57 24.3 °C 14.7 °C 1016.1 hPa SE 1.9 km/h 5.6 km/h 55 % 0 mm
18:58 24.3 °C 14.7 °C 1016.1 hPa SE 0.2 km/h 5.6 km/h 55 % 0 mm
19:03 24.3 °C 14.9 °C 1015.8 hPa SE 2.9 km/h 4.8 km/h 56 % 0 mm
19:08 24.2 °C 15.1 °C 1015.8 hPa SE 2.6 km/h 5.6 km/h 57 % 0 mm
19:13 24.1 °C 15.1 °C 1015.8 hPa SE 4.7 km/h 9.3 km/h 57 % 0 mm
19:19 24 °C 15.2 °C 1015.8 hPa SE 0.5 km/h 5.6 km/h 58 % 0 mm
19:24 23.9 °C 15.4 °C 1015.8 hPa Calm   9.3 km/h 59 % 0 mm
19:29 23.8 °C 15.3 °C 1015.8 hPa SE 2.7 km/h 8 km/h 59 % 0 mm
19:34 23.8 °C 15.6 °C 1015.8 hPa Calm   5.6 km/h 60 % 0 mm
19:39 23.7 °C 15.8 °C 1015.8 hPa Calm   1.9 km/h 61 % 0 mm
19:44 23.7 °C 15.7 °C 1015.8 hPa SE 6.1 km/h 11.1 km/h 61 % 0 mm
19:49 23.6 °C 15.8 °C 1015.8 hPa SE 3.7 km/h 5.6 km/h 62 % 0 mm
19:54 23.5 °C 16.1 °C 1015.8 hPa Calm   1.9 km/h 63 % 0 mm
19:59 23.5 °C 16.6 °C 1015.8 hPa East 0.3 km/h 5.6 km/h 65 % 0 mm
20:04 23.4 °C 16.7 °C 1015.8 hPa WSW 0.5 km/h 5.6 km/h 66 % 0 mm
20:09 23.4 °C 16.9 °C 1015.8 hPa Calm   3.7 km/h 67 % 0 mm
20:14 23.3 °C 16.8 °C 1015.8 hPa SE 0.3 km/h 3.7 km/h 67 % 0 mm
20:19 23.3 °C 16.8 °C 1015.8 hPa Calm   1.9 km/h 67 % 0 mm
20:24 23.2 °C 17 °C 1015.8 hPa SE 1.1 km/h 5.6 km/h 68 % 0 mm
20:29 23.2 °C 16.9 °C 1015.8 hPa Calm   1.9 km/h 68 % 0 mm
20:34 23.1 °C 17.1 °C 1015.8 hPa Calm   1.9 km/h 69 % 0 mm
20:39 23.1 °C 17.1 °C 1015.8 hPa WSW 0.5 km/h 1.9 km/h 69 % 0 mm
20:44 23.1 °C 17.1 °C 1015.8 hPa SSW 0.3 km/h 1.9 km/h 69 % 0 mm
20:49 23 °C 17 °C 1015.8 hPa SW 1.3 km/h 3.7 km/h 69 % 0 mm
20:54 22.9 °C 16.9 °C 1015.8 hPa Calm     69 % 0 mm
20:59 22.9 °C 16.9 °C 1016.1 hPa South 0.6 km/h 3.2 km/h 69 % 0 mm
21:04 22.8 °C 16.8 °C 1015.8 hPa SSW 1.6 km/h 3.7 km/h 69 % 0 mm
21:09 22.8 °C 16.8 °C 1015.8 hPa Calm   1.9 km/h 69 % 0 mm
21:14 22.8 °C 16.8 °C 1015.8 hPa SE 0.2 km/h 1.9 km/h 69 % 0 mm
21:19 22.7 °C 16.9 °C 1015.8 hPa Calm   1.9 km/h 70 % 0 mm
21:24 22.7 °C 16.9 °C 1015.8 hPa SSE 4.5 km/h 8 km/h 70 % 0 mm
21:29 22.7 °C 17.1 °C 1015.8 hPa Calm   3.7 km/h 71 % 0 mm
21:30 22.6 °C 17.1 °C 1015.8 hPa Calm     71 % 0 mm
21:35 22.6 °C 17.1 °C 1015.8 hPa Calm     71 % 0 mm
21:40 22.6 °C 17.1 °C 1015.8 hPa SE 0.8 km/h 3.7 km/h 71 % 0 mm
21:45 22.5 °C 17 °C 1015.8 hPa SE 0.5 km/h 5.6 km/h 71 % 0 mm
21:50 22.5 °C 17 °C 1015.8 hPa Calm     71 % 0 mm
21:55 22.4 °C 17.2 °C 1015.8 hPa Calm   3.7 km/h 72 % 0 mm
22:00 22.4 °C 17.2 °C 1015.8 hPa South 1 km/h 3.2 km/h 72 % 0 mm
22:06 22.4 °C 17.1 °C 1015.8 hPa SSE 1.6 km/h 6.4 km/h 72 % 0 mm
22:11 22.4 °C 17.1 °C 1015.5 hPa Calm   4.8 km/h 72 % 0 mm
22:16 22.4 °C 17.1 °C 1015.5 hPa SE 3.2 km/h 8 km/h 72 % 0 mm
22:21 22.4 °C 17.1 °C 1015.5 hPa Calm   4.8 km/h 72 % 0 mm
22:26 22.4 °C 17.1 °C 1015.5 hPa SE 1.6 km/h 8 km/h 72 % 0 mm
22:31 22.4 °C 17.1 °C 1015.5 hPa SE 1.6 km/h 6.4 km/h 72 % 0 mm
22:36 22.4 °C 17.1 °C 1015.5 hPa Calm   4.8 km/h 72 % 0 mm
22:41 22.4 °C 17.1 °C 1015.5 hPa Calm   1.6 km/h 72 % 0 mm
22:46 22.3 °C 17.1 °C 1015.5 hPa Calm   3.2 km/h 72 % 0 mm
22:50 22.3 °C 16.8 °C 1015.5 hPa Calm   3.2 km/h 71 % 0 mm
22:56 22.3 °C 17.1 °C 1015.1 hPa SE 1.6 km/h 6.4 km/h 72 % 0 mm
23:01 22.3 °C 17.1 °C 1015.1 hPa Calm   3.7 km/h 72 % 0 mm
23:06 22.3 °C 17 °C 1014.8 hPa Calm     72 % 0 mm
23:11 22.3 °C 17.2 °C 1014.8 hPa Calm     73 % 0 mm
23:16 22.3 °C 17.2 °C 1014.8 hPa Calm     73 % 0 mm
23:21 22.2 °C 16.9 °C 1014.8 hPa Calm     72 % 0 mm
23:26 22.2 °C 17.2 °C 1014.8 hPa Calm     73 % 0 mm
23:31 22.2 °C 17.1 °C 1014.8 hPa Calm     73 % 0 mm
23:36 22.1 °C 17.1 °C 1014.8 hPa Calm     73 % 0 mm
23:41 22.1 °C 17 °C 1014.8 hPa Calm     73 % 0 mm
23:46 22.1 °C 17.2 °C 1014.4 hPa Calm     74 % 0 mm
23:51 22 °C 17.2 °C 1014.4 hPa Calm     74 % 0 mm
23:56 21.9 °C 17.3 °C 1014.4 hPa Calm     75 % 0 mm
Crab Meadow Weather
Compliments of Weather Underground - 3 mb

Script developed by  Jim McMurry - jmcmurry@mwt.net Adapted for the template by  Wim van der Kuil - Leuven-Template.eu

Recycling: Americans threw away 38 billion plastic water bottles in 2006. A million and a half barrels of oil - enough to fuel 100,000 cars for a year - were used to produce the bottles.